sat.trackr.live / text

‹ back to catalog

TRANSPORTER-16 OBJECT BC

NORAD 68466 · 2026-067BC

PAYLOAD ACTIVE UNKNOWN

§ Identity

Operator
Country
TBD
Launch date
2026-03-30
Launch site
AFWTR
Launch vehicle
Mass (kg)
RCS (m²)

External: N2YO · Heavens-Above · Gunter

§ Orbital elements

Epoch: 2026-05-24T18:44:00.949920Z

Period
94.91 min
Inclination
97.4469°
Eccentricity
0.0007080
Mean motion
15.17234587 rev/d
Perigee alt
509.3 km
Apogee alt
519.1 km
Semi-major
6,892.3 km
B*
2.9373e-4
RAAN
103.4579°
Arg perigee
145.8461°
Mean anomaly
214.3230°
Rev number
823

§ Raw data

TRANSPORTER-16 OBJECT BC1 68466U 26067BC  26144.78056655  .00005780  00000+0  29373-3 0  99962 68466  97.4469 103.4579 0007080 145.8461 214.3230 15.17234587  8235

JSON: /api/v1/satellites/68466 · /tle

For live sub-satellite position, see the globe view (requires WebGL).

§ Visibility from observer

Set your observer location to see the next 7 days of passes ≥ 10°. The values pass through the URL so the page stays shareable.

No JS? Fill the form by hand. The geolocation button needs JavaScript.